Regional Weather Roundup
Issued by NWS State College, PA

Home | Current Version | Previous Version | Graphics & Text | Print | Product List | Glossary Off
Versions: 1 2 3 4 5 6 7 8 9 10 11 12 13 14 15 16 17 18 19 20 21 22 23 24 25 26 27 28 29 30 31 32 33 34 35 36 37 38 39 40 41 42 43 44 45 46 47 48 49 50

000
ASUS41 KCTP 160003
RWRCTP

REGIONAL WEATHER ROUNDUP
NATIONAL WEATHER SERVICE STATE COLLEGE PA
800 PM EDT TUE AUG 15 2017

Note: "fair" indicates few or no clouds below 12,000 feet with no
significant weather and/or obstructions to visibility.

* = STATION THAT DOES NOT REPORT PRECIPITATION /E.G. RAIN...SNOW...ETC/
    THUNDER OR FOG.

PAZ002>004-007>009-013>016-020>023-029>032-160100-
WESTERN PENNSYLVANIA

CITY           SKY/WX    TMP DP  RH WIND       PRES   REMARKS
ERIE           CLEAR     75  63  66 W5        29.92S
MEADVILLE      CLEAR     73  65  75 VRB3      29.96R
FRANKLIN*      PTCLDY    73  64  73 N3        29.96R
NEW CASTLE     CLOUDY    78  68  71 N7        29.94R
BEAVER COUNTY  PTCLDY    77  66  69 S3        29.92
BUTLER*        PTCLDY    75  64  69 CALM      29.93R
PITTSBURGH INT MOCLDY    80  65  59 W6        29.93R
PITTSBURGH     CLEAR     80  61  52 W6        29.93R
INDIANA*       MOCLDY    77  68  73 CALM      29.96S
LATROBE        PTCLDY    81  66  61 CALM      29.93R
WASHINGTON CO* CLEAR     75  66  73 W5        29.94R
$$

PAZ004>006-010>012-017>019-024>028-033>037-041-042-045-046-049>053-160100-
CENTRAL PENNSYLVANIA

CITY           SKY/WX    TMP DP  RH WIND       PRES   REMARKS
BRADFORD       MOCLDY    73  64  73 NW5       29.97R
DUBOIS         CLEAR     74  61  63 W5        29.94S
CLEARFIELD     CLEAR     78  62  57 CALM      29.93S
JOHNSTOWN      CLEAR     75  63  66 NW6       29.98R
ALTOONA        CLEAR     72  71  97 CALM      29.94R
STATE COLLEGE  PTCLDY    75  68  78 S5        29.92R
WILLIAMSPORT   CLEAR     78  68  71 CALM      29.87R
SELINSGROVE    CLEAR     74  69  85 CALM      29.90R
FT INDIANTOWN  PTCLDY    71  71  99 CALM      29.91R
CAPITAL CITY   CLEAR     76  68  76 CALM      29.90S
HARRISBURG     PTCLDY    73  71  93 CALM      29.89S
YORK           CLEAR     73  72  96 CALM      29.91R
$$

PAZ038>040-043-044-047-048-054-055-060>062-067>071-160100-
EASTERN PENNSYLVANIA

CITY           SKY/WX    TMP DP  RH WIND       PRES   REMARKS
SCRANTON       CLEAR     75  64  68 S3        29.91R
MOUNT POCONO   CLEAR     68  67  96 W3        29.96R
ALLENTOWN      PTCLDY    74  68  81 S3        29.90R
QUAKERTOWN*    CLOUDY    72  72 100 MISG      29.92S
READING        CLEAR     73  71  93 S3        29.90R
LANCASTER      CLEAR     74  71  91 CALM      29.91R FOG
COATESVILLE    CLEAR     72  72 100 CALM      29.93S FOG
POTTSTOWN      PTCLDY    72  71  97 CALM      29.92S FOG
BLUE BELL      CLOUDY    72  72 100 CALM      29.92S
DOYLESTOWN     CLOUDY    73  72  96 CALM      29.90S
WILLOW GROVE   NOT AVBL
NORTH PHILA    CLOUDY    77  73  87 CALM      29.91S
PHILADELPHIA   CLOUDY    77  72  84 N3        29.90S
$$




USA.gov is the U.S. government's official web portal to all federal, state and local government web resources and services.